Weather History for Winfield, KS

Change the Weather History Date:

Saturday, October 27, 2012

  Actual Average Record
Temperature  
Mean Temperature 38 °F -  
Max Temperature 51 °F 64 °F 84 °F (1999)
Min Temperature 24 °F 45 °F 24 °F (2012)
Degree Days  
Heating Degree Days 28    
Moisture  
Dew Point 26 °F    
Average Humidity 64    
Maximum Humidity 91    
Minimum Humidity 36    
Precipitation  
Precipitation 0.00 in - - ()
Sea Level Pressure  
Sea Level Pressure 30.35 in    
Wind  
Wind Speed 4 mph (NE)    
Max Wind Speed 8 mph    
Max Gust Speed -    
Visibility 10 miles    
Events      
Averages and records for this station are not official NWS values.
T = Trace of Precipitation, MM = Missing Value Source: NWS Daily Summary

Daily Weather History Graph

Daily Weather History Graph

Search for Another Location

Airport:

Trip Planner

Search our weather history database for the weather conditions in past years. The results will help you decide how hot, cold, wet, or windy it might be!

Date:

Astronomy

Oct. 27, 2012 Rise Set
Actual Time 7:47 AM CDT 6:35 PM CDT
Civil Twilight 7:21 AM CDT 7:02 PM CDT
Nautical Twilight 6:50 AM CDT 7:32 PM CDT
Astronomical Twilight 6:20 AM CDT 8:02 PM CDT
Moon 5:20 PM CDT (10/27) 5:46 AM CDT (10/27)
Length of Visible Light 11h 40m
Length of Day
10h 47m
Waxing Gibbous, 96% of the Moon is Illuminated
Oct 27
Waxing Gibbous
Oct 29
Full
Nov 6
Last Quarter
Nov 13
New
Nov 20
First Quarter

Hourly Weather History & Observations

Time (CDT) Temp. Windchill Dew Point Humidity Pressure Visibility Wind Dir Wind Speed Gust Speed Precip Events Conditions
12:54 AM 28.9 °F 21.9 °F 24.1 °F 82% 30.43 in 10.0 mi North 6.9 mph - N/A   Clear
1:54 AM 28.0 °F 20.8 °F 24.1 °F 85% 30.43 in 10.0 mi North 6.9 mph - N/A   Clear
2:54 AM 30.9 °F 25.2 °F 26.1 °F 82% 30.42 in 10.0 mi NNE 5.8 mph - N/A   Clear
3:54 AM 30.0 °F 25.2 °F 25.0 °F 82% 30.40 in 10.0 mi NNE 4.6 mph - N/A   Clear
4:54 AM 28.9 °F 23.9 °F 26.1 °F 89% 30.38 in 10.0 mi NNE 4.6 mph - N/A   Clear
5:54 AM 26.1 °F 21.9 °F 23.0 °F 88% 30.41 in 10.0 mi NW 3.5 mph - N/A   Clear
6:54 AM 25.0 °F - 21.9 °F 88% 30.41 in 10.0 mi Calm Calm - N/A   Clear
7:54 AM 24.1 °F 18.2 °F 21.9 °F 91% 30.44 in 9.0 mi NW 4.6 mph - N/A   Clear
8:54 AM 30.0 °F 25.2 °F 27.0 °F 88% 30.46 in 10.0 mi North 4.6 mph - N/A   Clear
9:54 AM 35.1 °F 29.3 °F 28.0 °F 76% 30.45 in 10.0 mi NE 6.9 mph - N/A   Clear
10:54 AM 39.9 °F 35.8 °F 28.9 °F 65% 30.42 in 10.0 mi Variable 5.8 mph - N/A   Clear
11:54 AM 44.1 °F 40.8 °F 28.9 °F 55% 30.40 in 10.0 mi East 5.8 mph - N/A   Clear
12:54 PM 46.0 °F 41.9 °F 28.0 °F 50% 30.35 in 10.0 mi ESE 8.1 mph - N/A   Clear
1:54 PM 48.0 °F - 27.0 °F 44% 30.32 in 10.0 mi Calm Calm - N/A   Clear
2:54 PM 50.0 °F - 26.1 °F 39% 30.28 in 10.0 mi Calm Calm - N/A   Clear
3:54 PM 51.1 °F - 25.0 °F 36% 30.27 in 10.0 mi ESE 4.6 mph - N/A   Clear
4:54 PM 50.0 °F - 24.1 °F 36% 30.26 in 10.0 mi Calm Calm - N/A   Clear
5:54 PM 48.9 °F - 24.1 °F 38% 30.25 in 10.0 mi Calm Calm - N/A   Clear
6:54 PM 48.0 °F - 25.0 °F 41% 30.25 in 10.0 mi East 3.5 mph - N/A   Partly Cloudy
7:54 PM 46.0 °F - 25.0 °F 44% 30.28 in 10.0 mi Calm Calm - N/A   Overcast
8:54 PM 42.1 °F - 27.0 °F 55% 30.29 in 10.0 mi Calm Calm - N/A   Mostly Cloudy
9:54 PM 39.9 °F - 27.0 °F 60% 30.30 in 10.0 mi Calm Calm - N/A   Clear
10:54 PM 39.9 °F 37.8 °F 26.1 °F 58% 30.30 in 10.0 mi East 3.5 mph - N/A   Clear
11:54 PM 37.9 °F 35.5 °F 27.0 °F 65% 30.30 in 10.0 mi East 3.5 mph - N/A   Clear